Location: DARK SKY Beskydy - Park tmavé oblohy, www.darkskybeskydy.cz
(49.4926°N, 18.5016°E)
Time: 13:32:46
(UTC+02:00)

ACS3 Solar Sail - Visible Passes

Search period start: 18 June 2024 00:00
Search period end: 28 June 2024 00:00
Orbit: 992 x 1024 km, 97.4° (Epoch: 17 June)

Date Brightness Start Highest point End Pass type
(mag) Time Alt. Az. Time Alt. Az. Time Alt. Az.
18 Jun 5.4 22:41:59 10° S 22:48:05 55° W 22:54:12 10° NNW visible
19 Jun 5.2 21:32:23 10° SE 21:38:23 53° ENE 21:44:24 10° N visible
19 Jun 6.2 23:17:19 10° SSW 23:22:47 31° W 23:28:16 10° NNW visible
20 Jun 4.9 22:06:29 10° SSE 22:12:43 89° E 22:18:58 10° NNW visible
20 Jun 6.9 23:53:38 10° SW 23:57:42 18° W 00:01:46 10° NW visible
21 Jun 5.4 22:41:10 10° S 22:47:14 54° W 22:53:20 10° NNW visible
22 Jun 5.2 21:31:30 10° SE 21:37:32 54° ENE 21:43:33 10° N visible
22 Jun 6.2 23:16:33 10° SSW 23:21:57 31° W 23:27:23 10° NNW visible
23 Jun 4.9 22:05:38 10° SSE 22:11:52 89° W 22:18:08 10° NNW visible
23 Jun 6.9 23:52:56 10° WSW 23:56:52 17° W 00:00:49 10° NW visible
24 Jun 5.5 22:40:21 10° S 22:46:23 52° W 22:52:28 10° NNW visible
25 Jun 5.2 21:30:37 10° SE 21:36:39 56° ENE 21:42:43 10° N visible
25 Jun 6.3 23:15:45 10° SSW 23:21:06 30° W 23:26:29 10° NNW visible
26 Jun 4.9 22:04:46 10° SSE 22:11:00 87° WSW 22:17:16 10° NNW visible
26 Jun 7.0 23:52:13 10° WSW 23:56:02 17° W 23:59:53 10° NW visible
27 Jun 5.5 22:39:31 10° S 22:45:32 51° W 22:51:36 10° NNW visible
